owner,sensor,date,latitude,longitude,vertical_datum,wind_speed,wind_to_direction,wind_speed_of_gust,qcFlag 
TABS,ioos:station:wmo:42045:1,2016-01-01T00:00:00Z,26.2168,-96.4998,4.0,0.0,0.0,0.0,'11111222,11111222,11111222' 
TABS,ioos:station:wmo:42045:1,2016-01-01T00:30:00Z,26.2168,-96.4998,4.0,6.877913928,61.42242816,9.68,'11111222,11111222,11111222' 
TABS,ioos:station:wmo:42045:1,2016-01-01T01:00:00Z,26.2168,-96.4998,4.0,6.684287546,60.02086547,9.77,'11111222,11111222,11111222' 
TABS,ioos:station:wmo:42045:1,2016-01-01T01:30:00Z,26.2168,-96.4998,4.0,6.68761542,55.47789945,10.02,'11111222,11111222,11111222' 
TABS,ioos:station:wmo:42045:1,2016-01-01T02:00:00Z,26.2168,-96.4998,4.0,6.90377433,58.08224185,9.76,'11111222,11111222,11111222' 
TABS,ioos:station:wmo:42045:1,2016-01-01T02:30:00Z,26.2168,-96.4998,4.0,7.47800107,64.15417453,10.88,'11111222,11111222,11111222' 
TABS,ioos:station:wmo:42045:1,2016-01-01T03:00:00Z,26.2168,-96.4998,4.0,7.066293229,63.97851969,10.35,'11111222,11111222,11111222' 
TABS,ioos:station:wmo:42045:1,2016-01-01T03:30:00Z,26.2168,-96.4998,4.0,8.96018973,68.73256862,14.69,'11111222,11111222,11111222' 
TABS,ioos:station:wmo:42045:1,2016-01-01T04:00:00Z,26.2168,-96.4998,4.0,7.273307363,71.8137833,10.98,'11111222,11111222,11111222' 
TABS,ioos:station:wmo:42045:1,2016-01-01T04:30:00Z,26.2168,-96.4998,4.0,7.010235374,64.93336835,10.15,'11111222,11111222,11111222' 
TABS,ioos:station:wmo:42045:1,2016-01-01T05:00:00Z,26.2168,-96.4998,4.0,7.34711508,72.5758131,11.01,'11111222,11111222,11111222' 
TABS,ioos:station:wmo:42045:1,2016-01-01T05:30:00Z,26.2168,-96.4998,4.0,7.645050687,78.07235033,11.16,'11111222,11111222,11111222' 
TABS,ioos:station:wmo:42045:1,2016-01-01T06:00:00Z,26.2168,-96.4998,4.0,9.232215335,81.46576472,15.46,'11111222,11111222,11111222' 
TABS,ioos:station:wmo:42045:1,2016-01-01T06:30:00Z,26.2168,-96.4998,4.0,6.674278987,70.2072107,11.1,'11111222,11111222,11111222' 
TABS,ioos:station:wmo:42045:1,2016-01-01T07:00:00Z,26.2168,-96.4998,4.0,6.9067648,70.98753895,11.39,'11111222,11111222,11111222' 
TABS,ioos:station:wmo:42045:1,2016-01-01T07:30:00Z,26.2168,-96.4998,4.0,6.671708927,66.97018909,10.13,'11111222,11111222,11111222' 
TABS,ioos:station:wmo:42045:1,2016-01-01T08:00:00Z,26.2168,-96.4998,4.0,6.96382079,70.88818946,9.93,'11111222,11111222,11111222' 
TABS,ioos:station:wmo:42045:1,2016-01-01T08:30:00Z,26.2168,-96.4998,4.0,7.621351586,71.08920175,11.06,'11111222,11111222,11111222' 
TABS,ioos:station:wmo:42045:1,2016-01-01T09:00:00Z,26.2168,-96.4998,4.0,7.200173609,63.61252624,11.15,'11111222,11111222,11111222' 
TABS,ioos:station:wmo:42045:1,2016-01-01T09:30:00Z,26.2168,-96.4998,4.0,6.74997037,64.64942495,10.11,'11111222,11111222,11111222' 
TABS,ioos:station:wmo:42045:1,2016-01-01T10:00:00Z,26.2168,-96.4998,4.0,6.19003231,61.1158595,9.63,'11111222,11111222,11111222' 
TABS,ioos:station:wmo:42045:1,2016-01-01T10:30:00Z,26.2168,-96.4998,4.0,6.195562928,60.08270886,10.67,'11111222,11111222,11111222' 
TABS,ioos:station:wmo:42045:1,2016-01-01T11:00:00Z,26.2168,-96.4998,4.0,5.867648592,63.91495385,9.61,'11111222,11111222,11111222' 
TABS,ioos:station:wmo:42045:1,2016-01-01T11:30:00Z,26.2168,-96.4998,4.0,6.062680925,66.26744058,9.96,'11111222,11111222,11111222' 
TABS,ioos:station:wmo:42045:1,2016-01-01T12:00:00Z,26.2168,-96.4998,4.0,6.644591786,74.72937049,11.04,'11111222,11111222,11111222' 
TABS,ioos:station:wmo:42045:1,2016-01-01T12:30:00Z,26.2168,-96.4998,4.0,7.49114811,82.09664361,12.3,'11111222,11111222,11111222' 
TABS,ioos:station:wmo:42045:1,2016-01-01T13:00:00Z,26.2168,-96.4998,4.0,7.035140368,77.18812325,11.08,'11111222,11111222,11111222' 
TABS,ioos:station:wmo:42045:1,2016-01-01T13:30:00Z,26.2168,-96.4998,4.0,6.300745988,77.44121091,10.54,'11111222,11111222,11111222' 
TABS,ioos:station:wmo:42045:1,2016-01-01T14:00:00Z,26.2168,-96.4998,4.0,6.901724422,77.19166332,11.4,'11111222,11111222,11111222' 
TABS,ioos:station:wmo:42045:1,2016-01-01T14:30:00Z,26.2168,-96.4998,4.0,5.814894668,74.74449605,10.73,'11111222,11111222,11111222' 
TABS,ioos:station:wmo:42045:1,2016-01-01T15:00:00Z,26.2168,-96.4998,4.0,6.541712314,66.96204983,13.19,'11111222,11111222,11111222' 
TABS,ioos:station:wmo:42045:1,2016-01-01T15:30:00Z,26.2168,-96.4998,4.0,5.99604036,77.77137203,10.58,'11111222,11111222,11111222' 
TABS,ioos:station:wmo:42045:1,2016-01-01T16:00:00Z,26.2168,-96.4998,4.0,5.9258839,66.63599931,9.91,'11111222,11111222,11111222' 
TABS,ioos:station:wmo:42045:1,2016-01-01T16:30:00Z,26.2168,-96.4998,4.0,6.756811378,73.84456058,15.37,'11111222,11111222,11111222' 
TABS,ioos:station:wmo:42045:1,2016-01-01T17:00:00Z,26.2168,-96.4998,4.0,5.098166337,57.08886282,9.82,'11111222,11111222,11111222' 
TABS,ioos:station:wmo:42045:1,2016-01-01T17:30:00Z,26.2168,-96.4998,4.0,5.91054143,55.82564051,10.07,'11111222,11111222,11111222' 
TABS,ioos:station:wmo:42045:1,2016-01-01T18:00:00Z,26.2168,-96.4998,4.0,4.678311661,52.46841078,9.23,'11111222,11111222,11111222' 
TABS,ioos:station:wmo:42045:1,2016-01-01T18:30:00Z,26.2168,-96.4998,4.0,4.572931226,40.83201882,9.31,'11111222,11111222,11111222' 
TABS,ioos:station:wmo:42045:1,2016-01-01T19:00:00Z,26.2168,-96.4998,4.0,3.712963776,30.7782228,9.5,'11111222,11111222,11111222' 
TABS,ioos:station:wmo:42045:1,2016-01-01T19:30:00Z,26.2168,-96.4998,4.0,3.824264635,41.81986163,8.29,'11111222,11111222,11111222' 
TABS,ioos:station:wmo:42045:1,2016-01-01T20:00:00Z,26.2168,-96.4998,4.0,5.084132178,48.02921788,11.12,'11111222,11111222,11111222' 
TABS,ioos:station:wmo:42045:1,2016-01-01T20:30:00Z,26.2168,-96.4998,4.0,4.786000418,53.15371067,10.42,'11111222,11111222,11111222' 
TABS,ioos:station:wmo:42045:1,2016-01-01T21:00:00Z,26.2168,-96.4998,4.0,6.334113987,68.41658463,12.91,'11111222,11111222,11111222' 
TABS,ioos:station:wmo:42045:1,2016-01-01T21:30:00Z,26.2168,-96.4998,4.0,6.562011887,45.24664677,12.15,'11111222,11111222,11111222' 
TABS,ioos:station:wmo:42045:1,2016-01-01T22:00:00Z,26.2168,-96.4998,4.0,4.883738322,62.96238386,9.43,'11111222,11111222,11111222' 
TABS,ioos:station:wmo:42045:1,2016-01-01T22:30:00Z,26.2168,-96.4998,4.0,5.282281704,49.22190464,11.38,'11111222,11111222,11111222' 
TABS,ioos:station:wmo:42045:1,2016-01-01T23:00:00Z,26.2168,-96.4998,4.0,5.767087653,47.17797777,10.39,'11111222,11111222,11111222' 
TABS,ioos:station:wmo:42045:1,2016-01-01T23:30:00Z,26.2168,-96.4998,4.0,5.367168714,35.67389082,9.92,'11111222,11111222,11111222' 
TABS,ioos:station:wmo:42045:1,2016-01-02T00:00:00Z,26.2168,-96.4998,4.0,5.072041009,27.47415692,10.4,'11111222,11111222,11111222' 
TABS,ioos:station:wmo:42045:1,2016-01-02T00:30:00Z,26.2168,-96.4998,4.0,4.644276047,9.543216146,9.52,'11111222,11111222,11111222' 
TABS,ioos:station:wmo:42045:1,2016-01-02T01:00:00Z,26.2168,-96.4998,4.0,3.877692613,347.7915429,8.62,'11111222,11111222,11111222' 
TABS,ioos:station:wmo:42045:1,2016-01-02T01:30:00Z,26.2168,-96.4998,4.0,3.626086044,356.67973,9.07,'11111222,11111222,11111222' 
TABS,ioos:station:wmo:42045:1,2016-01-02T02:00:00Z,26.2168,-96.4998,4.0,3.632258251,338.5206424,11.4,'11111222,11111222,11111222' 
TABS,ioos:station:wmo:42045:1,2016-01-02T02:30:00Z,26.2168,-96.4998,4.0,3.32701067,342.3273284,8.58,'11111222,11111222,11111222' 
TABS,ioos:station:wmo:42045:1,2016-01-02T03:00:00Z,26.2168,-96.4998,4.0,3.54391027,349.1020753,9.65,'11111222,11111222,11111222' 
TABS,ioos:station:wmo:42045:1,2016-01-02T03:30:00Z,26.2168,-96.4998,4.0,3.730656779,1.074916738,8.59,'11111222,11111222,11111222' 
TABS,ioos:station:wmo:42045:1,2016-01-02T04:00:00Z,26.2168,-96.4998,4.0,4.766182959,28.7157167,10.04,'11111222,11111222,11111222' 
TABS,ioos:station:wmo:42045:1,2016-01-02T04:30:00Z,26.2168,-96.4998,4.0,6.33335614,20.03695285,13.09,'11111222,11111222,11111222' 
TABS,ioos:station:wmo:42045:1,2016-01-02T05:00:00Z,26.2168,-96.4998,4.0,5.67334998,7.087210105,10.59,'11111222,11111222,11111222' 
TABS,ioos:station:wmo:42045:1,2016-01-02T05:30:00Z,26.2168,-96.4998,4.0,5.306995383,10.9709226,8.67,'11111222,11111222,11111222' 
TABS,ioos:station:wmo:42045:1,2016-01-02T06:00:00Z,26.2168,-96.4998,4.0,5.546791866,14.08610568,10.08,'11111222,11111222,11111222' 
TABS,ioos:station:wmo:42045:1,2016-01-02T06:30:00Z,26.2168,-96.4998,4.0,5.810077452,0.295633619,9.52,'11111222,11111222,11111222' 
TABS,ioos:station:wmo:42045:1,2016-01-02T07:00:00Z,26.2168,-96.4998,4.0,5.684091836,4.035124843,9.22,'11111222,11111222,11111222' 
TABS,ioos:station:wmo:42045:1,2016-01-02T07:30:00Z,26.2168,-96.4998,4.0,6.095842846,19.95072844,10.03,'11111222,11111222,11111222' 
TABS,ioos:station:wmo:42045:1,2016-01-02T08:00:00Z,26.2168,-96.4998,4.0,5.723853597,357.8972224,9.08,'11111222,11111222,11111222' 
TABS,ioos:station:wmo:42045:1,2016-01-02T08:30:00Z,26.2168,-96.4998,4.0,5.848709259,349.4583907,9.09,'11111222,11111222,11111222' 
TABS,ioos:station:wmo:42045:1,2016-01-02T09:00:00Z,26.2168,-96.4998,4.0,5.654882846,355.8419943,8.47,'11111222,11111222,11111222' 
TABS,ioos:station:wmo:42045:1,2016-01-02T09:30:00Z,26.2168,-96.4998,4.0,6.00240785,1.62273197,9.35,'11111222,11111222,11111222' 
TABS,ioos:station:wmo:42045:1,2016-01-02T10:00:00Z,26.2168,-96.4998,4.0,6.129151654,346.5077238,9.71,'11111222,11111222,11111222' 
TABS,ioos:station:wmo:42045:1,2016-01-02T10:30:00Z,26.2168,-96.4998,4.0,6.432915358,349.2488477,9.73,'11111222,11111222,11111222' 
TABS,ioos:station:wmo:42045:1,2016-01-02T11:00:00Z,26.2168,-96.4998,4.0,5.863411976,351.5656801,9.46,'11111222,11111222,11111222' 
TABS,ioos:station:wmo:42045:1,2016-01-02T11:30:00Z,26.2168,-96.4998,4.0,5.270569229,345.3835231,9.07,'11111222,11111222,11111222' 
TABS,ioos:station:wmo:42045:1,2016-01-02T12:00:00Z,26.2168,-96.4998,4.0,5.22422243,346.0433778,9.48,'11111222,11111222,11111222' 
TABS,ioos:station:wmo:42045:1,2016-01-02T12:30:00Z,26.2168,-96.4998,4.0,5.246379704,342.0138459,9.16,'11111222,11111222,11111222' 
TABS,ioos:station:wmo:42045:1,2016-01-02T13:00:00Z,26.2168,-96.4998,4.0,6.455648689,357.6027666,13.38,'11111222,11111222,11111222' 
TABS,ioos:station:wmo:42045:1,2016-01-02T13:30:00Z,26.2168,-96.4998,4.0,5.187725899,10.55157437,10.71,'11111222,11111222,11111222' 
TABS,ioos:station:wmo:42045:1,2016-01-02T14:00:00Z,26.2168,-96.4998,4.0,4.884639188,5.75705552,9.02,'11111222,11111222,11111222' 
TABS,ioos:station:wmo:42045:1,2016-01-02T14:30:00Z,26.2168,-96.4998,4.0,4.111763612,9.943169303,8.34,'11111222,11111222,11111222' 
TABS,ioos:station:wmo:42045:1,2016-01-02T15:00:00Z,26.2168,-96.4998,4.0,4.317707725,22.46648693,9.0,'11111222,11111222,11111222' 
TABS,ioos:station:wmo:42045:1,2016-01-02T15:30:00Z,26.2168,-96.4998,4.0,5.270787417,22.7701152,11.89,'11111222,11111222,11111222' 
TABS,ioos:station:wmo:42045:1,2016-01-02T16:00:00Z,26.2168,-96.4998,4.0,5.274552114,32.06266988,13.92,'11111222,11111222,11111222' 
TABS,ioos:station:wmo:42045:1,2016-01-02T16:30:00Z,26.2168,-96.4998,4.0,4.806349966,15.56853173,8.77,'11111222,11111222,11111222' 
TABS,ioos:station:wmo:42045:1,2016-01-02T17:00:00Z,26.2168,-96.4998,4.0,4.032728605,350.7243478,8.65,'11111222,11111222,11111222' 
TABS,ioos:station:wmo:42045:1,2016-01-02T17:30:00Z,26.2168,-96.4998,4.0,4.082401254,343.7845342,8.57,'11111222,11111222,11111222' 
TABS,ioos:station:wmo:42045:1,2016-01-02T18:00:00Z,26.2168,-96.4998,4.0,3.331696265,327.502294,10.33,'11111222,11111222,11111222' 
TABS,ioos:station:wmo:42045:1,2016-01-02T18:30:00Z,26.2168,-96.4998,4.0,5.413612472,261.9297867,10.51,'11111222,11111222,11111222' 
TABS,ioos:station:wmo:42045:1,2016-01-02T19:00:00Z,26.2168,-96.4998,4.0,3.935606688,273.0586904,9.33,'11111222,11111222,11111222' 
TABS,ioos:station:wmo:42045:1,2016-01-02T19:30:00Z,26.2168,-96.4998,4.0,2.415056935,333.9653006,8.79,'11111222,11111222,11111222' 
TABS,ioos:station:wmo:42045:1,2016-01-02T20:00:00Z,26.2168,-96.4998,4.0,3.766019118,36.68703447,7.53,'11111222,11111222,11111222' 
TABS,ioos:station:wmo:42045:1,2016-01-02T20:30:00Z,26.2168,-96.4998,4.0,4.526820076,41.50709932,8.08,'11111222,11111222,11111222' 
TABS,ioos:station:wmo:42045:1,2016-01-02T21:00:00Z,26.2168,-96.4998,4.0,5.534799003,47.48923141,8.54,'11111222,11111222,11111222' 
TABS,ioos:station:wmo:42045:1,2016-01-02T21:30:00Z,26.2168,-96.4998,4.0,5.673975678,46.85649882,8.95,'11111222,11111222,11111222' 
TABS,ioos:station:wmo:42045:1,2016-01-02T22:00:00Z,26.2168,-96.4998,4.0,5.444740582,22.23105274,7.98,'11111222,11111222,11111222' 
TABS,ioos:station:wmo:42045:1,2016-01-02T22:30:00Z,26.2168,-96.4998,4.0,5.593969968,7.188309874,9.15,'11111222,11111222,11111222' 
TABS,ioos:station:wmo:42045:1,2016-01-02T23:00:00Z,26.2168,-96.4998,4.0,5.802456376,5.042228819,8.41,'11111222,11111222,11111222' 
TABS,ioos:station:wmo:42045:1,2016-01-02T23:30:00Z,26.2168,-96.4998,4.0,5.650566343,359.188578,8.26,'11111222,11144222,11111222' 
TABS,ioos:station:wmo:42045:1,2016-01-03T00:00:00Z,26.2168,-96.4998,4.0,5.804041695,14.46696641,8.65,'11111222,11111222,11111222' 
TABS,ioos:station:wmo:42045:1,2016-01-03T00:30:00Z,26.2168,-96.4998,4.0,6.253862806,29.92641946,8.96,'11111222,11111222,11111222' 
TABS,ioos:station:wmo:42045:1,2016-01-03T01:00:00Z,26.2168,-96.4998,4.0,6.067824981,23.6074849,9.14,'11111222,11111222,11111222' 
TABS,ioos:station:wmo:42045:1,2016-01-03T01:30:00Z,26.2168,-96.4998,4.0,6.051941837,33.26965276,8.29,'11111222,11111222,11111222' 
TABS,ioos:station:wmo:42045:1,2016-01-03T02:00:00Z,26.2168,-96.4998,4.0,6.717990771,19.56751236,11.79,'11111222,11111222,11111222' 
TABS,ioos:station:wmo:42045:1,2016-01-03T02:30:00Z,26.2168,-96.4998,4.0,6.497322525,15.53330494,9.76,'11111222,11111222,11111222' 
TABS,ioos:station:wmo:42045:1,2016-01-03T03:00:00Z,26.2168,-96.4998,4.0,6.499846152,29.08857294,9.74,'11111222,11111222,11111222' 
TABS,ioos:station:wmo:42045:1,2016-01-03T03:30:00Z,26.2168,-96.4998,4.0,6.237603707,33.68977829,9.91,'11111222,11111222,11111222' 
TABS,ioos:station:wmo:42045:1,2016-01-03T04:00:00Z,26.2168,-96.4998,4.0,6.504805916,34.66700796,9.09,'11111222,11111222,11111222' 
TABS,ioos:station:wmo:42045:1,2016-01-03T04:30:00Z,26.2168,-96.4998,4.0,6.248655855,25.49855468,10.25,'11111222,11111222,11111222' 
TABS,ioos:station:wmo:42045:1,2016-01-03T05:00:00Z,26.2168,-96.4998,4.0,6.346975658,24.18220148,9.8,'11111222,11111222,11111222' 
TABS,ioos:station:wmo:42045:1,2016-01-03T05:30:00Z,26.2168,-96.4998,4.0,6.34477738,15.63504269,8.94,'11111222,11111222,11111222' 
TABS,ioos:station:wmo:42045:1,2016-01-03T06:00:00Z,26.2168,-96.4998,4.0,6.300325388,20.53449907,9.69,'11111222,11111222,11111222' 
TABS,ioos:station:wmo:42045:1,2016-01-03T06:30:00Z,26.2168,-96.4998,4.0,6.518420054,37.52006056,9.9,'11111222,11111222,11111222' 
TABS,ioos:station:wmo:42045:1,2016-01-03T07:00:00Z,26.2168,-96.4998,4.0,5.461107946,1.153941285,9.35,'11111222,11111222,11111222' 
TABS,ioos:station:wmo:42045:1,2016-01-03T07:30:00Z,26.2168,-96.4998,4.0,4.740168773,339.5003807,9.82,'11111222,11111222,11111222' 
TABS,ioos:station:wmo:42045:1,2016-01-03T08:00:00Z,26.2168,-96.4998,4.0,4.660439893,336.0748047,10.13,'11111222,11111222,11111222' 
TABS,ioos:station:wmo:42045:1,2016-01-03T08:30:00Z,26.2168,-96.4998,4.0,5.470959696,334.7931508,9.62,'11111222,11111222,11111222' 
TABS,ioos:station:wmo:42045:1,2016-01-03T09:00:00Z,26.2168,-96.4998,4.0,5.499272679,355.2015497,9.51,'11111222,11111222,11111222' 
TABS,ioos:station:wmo:42045:1,2016-01-03T09:30:00Z,26.2168,-96.4998,4.0,5.829107994,336.1171972,9.64,'11111222,11111222,11111222' 
TABS,ioos:station:wmo:42045:1,2016-01-03T10:00:00Z,26.2168,-96.4998,4.0,7.542473069,286.0079654,12.39,'11111222,11111222,11111222' 
TABS,ioos:station:wmo:42045:1,2016-01-03T10:30:00Z,26.2168,-96.4998,4.0,7.206864783,288.61089,12.47,'11111222,11111222,11111222' 
TABS,ioos:station:wmo:42045:1,2016-01-03T11:00:00Z,26.2168,-96.4998,4.0,7.542923836,284.2757087,11.58,'11111222,11111222,11111222' 
TABS,ioos:station:wmo:42045:1,2016-01-03T11:30:00Z,26.2168,-96.4998,4.0,6.159066488,297.5635049,11.42,'11111222,11111222,11111222' 
TABS,ioos:station:wmo:42045:1,2016-01-03T12:00:00Z,26.2168,-96.4998,4.0,6.699380568,296.2207603,12.28,'11111222,11111222,11111222' 
TABS,ioos:station:wmo:42045:1,2016-01-03T12:30:00Z,26.2168,-96.4998,4.0,7.568203221,285.0094085,11.23,'11111222,11111222,11111222' 
TABS,ioos:station:wmo:42045:1,2016-01-03T13:00:00Z,26.2168,-96.4998,4.0,7.513574382,288.3866771,11.86,'11111222,11111222,11111222' 
TABS,ioos:station:wmo:42045:1,2016-01-03T13:30:00Z,26.2168,-96.4998,4.0,7.331609646,292.3673305,10.55,'11111222,11111222,11111222' 
TABS,ioos:station:wmo:42045:1,2016-01-03T14:00:00Z,26.2168,-96.4998,4.0,8.074583581,281.9361391,11.72,'11111222,11111222,11111222' 
TABS,ioos:station:wmo:42045:1,2016-01-03T14:30:00Z,26.2168,-96.4998,4.0,7.751051542,292.130798,11.82,'11111222,11111222,11111222' 
TABS,ioos:station:wmo:42045:1,2016-01-03T15:00:00Z,26.2168,-96.4998,4.0,7.060601957,301.0332683,10.03,'11111222,11111222,11111222' 
TABS,ioos:station:wmo:42045:1,2016-01-03T15:30:00Z,26.2168,-96.4998,4.0,7.709014204,293.3058862,10.64,'11111222,11111222,11111222' 
TABS,ioos:station:wmo:42045:1,2016-01-03T16:00:00Z,26.2168,-96.4998,4.0,7.276771262,295.8255043,10.32,'11111222,11111222,11111222' 
TABS,ioos:station:wmo:42045:1,2016-01-03T16:30:00Z,26.2168,-96.4998,4.0,7.671570895,292.4532053,11.78,'11111222,11111222,11111222' 
TABS,ioos:station:wmo:42045:1,2016-01-03T17:00:00Z,26.2168,-96.4998,4.0,7.331302749,298.8723567,11.73,'11111222,11111222,11111222' 
TABS,ioos:station:wmo:42045:1,2016-01-03T17:30:00Z,26.2168,-96.4998,4.0,10.25048779,307.4287756,17.81,'11111222,11111222,11111222' 
TABS,ioos:station:wmo:42045:1,2016-01-03T18:00:00Z,26.2168,-96.4998,4.0,7.861730089,287.9278778,11.09,'11111222,11111222,11111222' 
TABS,ioos:station:wmo:42045:1,2016-01-03T18:30:00Z,26.2168,-96.4998,4.0,8.211558926,291.5033513,11.5,'11111222,11111222,11111222' 
TABS,ioos:station:wmo:42045:1,2016-01-03T19:00:00Z,26.2168,-96.4998,4.0,7.893136259,288.159448,10.93,'11111222,11111222,11111222' 
TABS,ioos:station:wmo:42045:1,2016-01-03T19:30:00Z,26.2168,-96.4998,4.0,7.949654081,285.2424406,10.43,'11111222,11111222,11111222' 
TABS,ioos:station:wmo:42045:1,2016-01-03T20:00:00Z,26.2168,-96.4998,4.0,7.986645103,289.6827324,10.8,'11111222,11111222,11111222' 
TABS,ioos:station:wmo:42045:1,2016-01-03T20:30:00Z,26.2168,-96.4998,4.0,7.835745019,295.8782591,12.79,'11111222,11111222,11111222' 
TABS,ioos:station:wmo:42045:1,2016-01-03T21:00:00Z,26.2168,-96.4998,4.0,7.535522543,291.7307626,9.62,'11111222,11111222,11111222' 
TABS,ioos:station:wmo:42045:1,2016-01-03T21:30:00Z,26.2168,-96.4998,4.0,9.204879141,279.8204572,15.97,'11111222,11111222,11111222' 
TABS,ioos:station:wmo:42045:1,2016-01-03T22:00:00Z,26.2168,-96.4998,4.0,6.956471807,304.3981524,9.29,'11111222,11111222,11111222' 
TABS,ioos:station:wmo:42045:1,2016-01-03T22:30:00Z,26.2168,-96.4998,4.0,6.899746372,301.5475867,9.3,'11111222,11111222,11111222' 
TABS,ioos:station:wmo:42045:1,2016-01-03T23:00:00Z,26.2168,-96.4998,4.0,7.092940152,302.6817612,9.37,'11111222,11111222,11111222' 
TABS,ioos:station:wmo:42045:1,2016-01-03T23:30:00Z,26.2168,-96.4998,4.0,6.882862776,297.0489564,9.46,'11111222,11111222,11111222' 
TABS,ioos:station:wmo:42045:1,2016-01-04T00:00:00Z,26.2168,-96.4998,4.0,6.626228188,314.2050222,9.56,'11111222,11111222,11111222' 
TABS,ioos:station:wmo:42045:1,2016-01-04T00:30:00Z,26.2168,-96.4998,4.0,6.898014207,306.986097,9.25,'11111222,11111222,11111222' 
TABS,ioos:station:wmo:42045:1,2016-01-04T01:00:00Z,26.2168,-96.4998,4.0,6.735792455,308.7925617,9.52,'11111222,11111222,11111222' 
TABS,ioos:station:wmo:42045:1,2016-01-04T01:30:00Z,26.2168,-96.4998,4.0,6.921993932,309.2543715,9.15,'11111222,11111222,11111222' 
TABS,ioos:station:wmo:42045:1,2016-01-04T02:00:00Z,26.2168,-96.4998,4.0,7.0843066,309.9608065,12.26,'11111222,11111222,11111222' 
TABS,ioos:station:wmo:42045:1,2016-01-04T02:30:00Z,26.2168,-96.4998,4.0,9.461506223,343.0395714,13.27,'11111222,11111222,11111222' 
TABS,ioos:station:wmo:42045:1,2016-01-04T03:00:00Z,26.2168,-96.4998,4.0,6.407573644,342.4697744,8.64,'11111222,11111222,11111222' 
TABS,ioos:station:wmo:42045:1,2016-01-04T03:30:00Z,26.2168,-96.4998,4.0,6.500769185,322.2485762,9.5,'11111222,11111222,11111222' 
TABS,ioos:station:wmo:42045:1,2016-01-04T04:00:00Z,26.2168,-96.4998,4.0,5.477709375,349.1616952,7.49,'11111222,11111222,11111222' 
TABS,ioos:station:wmo:42045:1,2016-01-04T04:30:00Z,26.2168,-96.4998,4.0,5.908113066,347.5867173,8.03,'11111222,11111222,11111222' 
TABS,ioos:station:wmo:42045:1,2016-01-04T05:00:00Z,26.2168,-96.4998,4.0,5.02637046,347.1248181,7.01,'11111222,11111222,11111222' 
TABS,ioos:station:wmo:42045:1,2016-01-04T05:30:00Z,26.2168,-96.4998,4.0,5.409371498,346.9655082,7.24,'11111222,11111222,11111222' 
TABS,ioos:station:wmo:42045:1,2016-01-04T06:00:00Z,26.2168,-96.4998,4.0,5.835357744,2.455216863,7.81,'11111222,11111222,11111222' 
TABS,ioos:station:wmo:42045:1,2016-01-04T06:30:00Z,26.2168,-96.4998,4.0,5.831929355,1.473623358,7.82,'11111222,11111222,11111222' 
TABS,ioos:station:wmo:42045:1,2016-01-04T07:00:00Z,26.2168,-96.4998,4.0,5.695489443,357.4840242,7.86,'11111222,11111222,11111222' 
TABS,ioos:station:wmo:42045:1,2016-01-04T07:30:00Z,26.2168,-96.4998,4.0,5.306938854,348.4781489,7.0,'11111222,11111222,11111222' 
TABS,ioos:station:wmo:42045:1,2016-01-04T08:00:00Z,26.2168,-96.4998,4.0,5.914811916,340.3394954,8.15,'11111222,11111222,11111222' 
TABS,ioos:station:wmo:42045:1,2016-01-04T08:30:00Z,26.2168,-96.4998,4.0,6.036331667,336.3650321,8.48,'11111222,11111222,11111222' 
TABS,ioos:station:wmo:42045:1,2016-01-04T09:00:00Z,26.2168,-96.4998,4.0,6.000041667,338.6949454,8.35,'11111222,11111222,11111222' 
TABS,ioos:station:wmo:42045:1,2016-01-04T09:30:00Z,26.2168,-96.4998,4.0,6.270326945,329.6316076,9.0,'11111222,11111222,11111222' 
TABS,ioos:station:wmo:42045:1,2016-01-04T10:00:00Z,26.2168,-96.4998,4.0,8.571697615,276.2958876,10.95,'11111222,11111222,11111222' 
TABS,ioos:station:wmo:42045:1,2016-01-04T10:30:00Z,26.2168,-96.4998,4.0,8.291350915,280.2121111,10.48,'11111222,11111222,11111222' 
TABS,ioos:station:wmo:42045:1,2016-01-04T11:00:00Z,26.2168,-96.4998,4.0,7.500539981,297.3849065,10.05,'11111222,11111222,11111222' 
TABS,ioos:station:wmo:42045:1,2016-01-04T11:30:00Z,26.2168,-96.4998,4.0,7.430814222,306.0216202,9.63,'11111222,11111222,11111222' 
TABS,ioos:station:wmo:42045:1,2016-01-04T12:00:00Z,26.2168,-96.4998,4.0,7.444366998,302.0460998,10.22,'11111222,11111222,11111222' 
TABS,ioos:station:wmo:42045:1,2016-01-04T12:30:00Z,26.2168,-96.4998,4.0,7.32566038,301.8892415,10.16,'11111222,11111222,11111222' 
TABS,ioos:station:wmo:42045:1,2016-01-04T13:00:00Z,26.2168,-96.4998,4.0,6.895288246,309.1139207,9.77,'11111222,11111222,11111222' 
TABS,ioos:station:wmo:42045:1,2016-01-04T13:30:00Z,26.2168,-96.4998,4.0,6.196902452,330.6219585,8.87,'11111222,11111222,11111222' 
TABS,ioos:station:wmo:42045:1,2016-01-04T14:00:00Z,26.2168,-96.4998,4.0,6.209476629,327.8966738,8.74,'11111222,11111222,11111222' 
TABS,ioos:station:wmo:42045:1,2016-01-04T14:30:00Z,26.2168,-96.4998,4.0,6.340859563,329.7954569,8.43,'11111222,11111222,11111222' 
TABS,ioos:station:wmo:42045:1,2016-01-04T15:00:00Z,26.2168,-96.4998,4.0,6.017682278,331.7313429,8.15,'11111222,11111222,11111222' 
TABS,ioos:station:wmo:42045:1,2016-01-04T15:30:00Z,26.2168,-96.4998,4.0,5.770970456,329.2574545,7.7,'11111222,11111222,11111222' 
TABS,ioos:station:wmo:42045:1,2016-01-04T16:00:00Z,26.2168,-96.4998,4.0,5.502372216,330.732861,7.65,'11111222,11111222,11111222' 
TABS,ioos:station:wmo:42045:1,2016-01-04T16:30:00Z,26.2168,-96.4998,4.0,5.243700983,342.4632944,7.2,'11111222,11111222,11111222' 
TABS,ioos:station:wmo:42045:1,2016-01-04T17:00:00Z,26.2168,-96.4998,4.0,5.468829857,338.5486208,7.07,'11111222,11111222,11111222' 
TABS,ioos:station:wmo:42045:1,2016-01-04T17:30:00Z,26.2168,-96.4998,4.0,5.182624818,339.6767002,6.82,'11111222,11111222,11111222' 
TABS,ioos:station:wmo:42045:1,2016-01-04T18:00:00Z,26.2168,-96.4998,4.0,5.376402143,343.6884698,6.72,'11111222,11111222,11111222' 
TABS,ioos:station:wmo:42045:1,2016-01-04T18:30:00Z,26.2168,-96.4998,4.0,4.854739952,340.6318125,6.75,'11111222,11111222,11111222' 